Home   Weather   Longford   Past weeks
Flag for Ireland

Past Weather in Longford, Ireland — Yesterday and Last 2 Weeks

Now
63 °F

Mild.


Feels Like: 63 °F
Forecast: 64 / 53 °F
Wind: 3 mph from Northwest

Location: Mullingar

Current Time: Jul 17, 2019 at 8:25:46 pm

Latest Report: Jul 17, 2019 at 7:00 pm


Visibility: 22 mi

Pressure: 29.75 "Hg

Humidity: 97%

Dew Point: 62 °F

Location of LongfordLocation

Past Weather in Longford — Graph

°F

Longford Temperature Yesterday

Maximum temperature yesterday: 73 °F (at 5:00 pm)
Minimum temperature yesterday: 58 °F (at 6:00 am)
Average temperature yesterday: 64 °F

High & Low Weather Summary for the Past Weeks

 TemperatureHumidityPressure
High73 °F (Jul 15, 5:00 pm)100% (Jul 4, 7:00 am)30.44 "Hg (Jul 4, 7:00 am)
Low44 °F (Jul 4, 5:00 am)51% (Jul 3, 6:00 pm)29.73 "Hg (Jul 17, 5:00 pm)
Average60 °F82%30.12 "Hg
* Reported Jul 2 7:00 pm — Jul 17 7:00 pm, Longford. Weather by CustomWeather, © 2019

Note: Actual official high and low records may vary slightly from our data, if they occured in-between our weather recording intervals... More about our weather records

Advertising

Longford Weather History for the Previous 24 Hours

Scroll right to see more
 ConditionsComfort  
Time TempWeatherWind HumidityBarometerVisibility
7:00 pm
Wed, Jul 17
63 °FMild.3 mph97%29.75 "Hg22 mi
6:00 pm63 °FMild.2 mph97%29.73 "Hg5 mi
5:00 pm64 °FMild.5 mph98%29.73 "Hg11 mi
4:00 pm66 °FMild.7 mph94%29.74 "Hg9 mi
3:00 pm63 °FMild.6 mph97%29.77 "Hg10 mi
2:00 pm62 °FCool.5 mph96%29.77 "Hg19 mi
1:00 pm60 °FRain showers. Cloudy.6 mph100%29.79 "Hg4 mi
12:00 pm61 °FCool.5 mph98%29.80 "Hg5 mi
11:00 am60 °FCool.5 mph96%29.82 "Hg11 mi
10:00 am58 °FLight rain. Cloudy.3 mph99%29.84 "Hg4 mi
9:00 am57 °FCool.5 mph98%29.86 "Hg9 mi
8:00 am57 °FCool.5 mph98%29.88 "Hg8 mi
7:00 am57 °FCool.3 mph97%29.88 "Hg6 mi
6:00 am58 °FCool.3 mph91%29.89 "Hg9 mi
5:00 am58 °FCool.3 mph88%29.90 "Hg22 mi
4:00 am58 °FCool.3 mph90%29.92 "Hg19 mi
3:00 am56 °FCool.2 mph92%29.94 "Hg22 mi
2:00 am57 °FCool.2 mph88%29.97 "Hg22 mi
1:00 am58 °FCool.1 mph88%29.99 "Hg22 mi
12:00 am57 °FCool.1 mph91%30.00 "Hg22 mi
11:00 pm
Tue, Jul 16
58 °FCool.1 mph84%30.00 "Hg28 mi
10:00 pm60 °FCool.1 mph77%30.01 "Hg31 mi
9:00 pm63 °FMild.1 mph72%30.01 "Hg22 mi
8:00 pm68 °FMild.3 mph61%30.00 "Hg22 mi
Weather by CustomWeather, © 2019

See weather overview